Regional Weather Roundup
Issued by NWS

Home | Current Version | Previous Version | Graphics & Text | Print | Product List | Glossary Off
Versions: 1 2 3 4 5 6 7 8 9 10 11 12 13 14 15 16 17 18 19 20 21 22 23 24 25 26 27 28 29 30 31 32 33 34 35 36 37 38 39 40 41 42 43 44 45 46 47 48 49 50

000
ASUS43 KFSD 301502
RWRSD

WEATHER ROUNDUP FOR SOUTH DAKOTA
NATIONAL WEATHER SERVICE SIOUX FALLS SD
1000 AM CDT WED JUL 30 2014

NOTE: "FAIR" INDICATES FEW OR NO CLOUDS BELOW 12,000 FEET WITH NO
SIGNIFICANT WEATHER AND/OR OBSTRUCTIONS TO VISIBILITY.


SDZ001>005-009-010-012>017-301600-
NORTHWEST AND NORTH CENTRAL SOUTH DAKOTA

CITY           SKY/WX    TMP DP  RH WIND       PRES   REMARKS
BUFFALO          N/A     71  55  56 N7        30.15R
FAITH            N/A     70  56  61 W5        30.16S
MOBRIDGE       MOSUNNY   71  59  65 S6        30.14R
$$

SDZ012>016-024>037-041>051-057-063-072>074-301600-
SOUTHWEST AND SOUTH CENTRAL SOUTH DAKOTA

CITY           SKY/WX    TMP DP  RH WIND       PRES   REMARKS
RAPID CTY ARPT SUNNY     73  56  54 VRB3      30.21S
PIERRE         SUNNY     70  59  68 SE6       30.15S
CUSTER         MOSUNNY   69  47  45 VRB3      30.33S
ELLSWORTH AFB  SUNNY     73  55  52 N6        30.21R
PHILIP         SUNNY     72  53  51 CALM      30.17F
PINE RIDGE     MOSUNNY   69  57  65 W9        30.24S
WINNER         PTSUNNY   72  52  49 CALM      30.18S
$$

SDZ004>011-016>023-039-040-301600-
NORTHEAST SOUTH DAKOTA

CITY           SKY/WX    TMP DP  RH WIND       PRES   REMARKS
ABERDEEN       SUNNY     69  55  60 N3        30.16F
WATERTOWN      SUNNY     68  56  65 NW6       30.17S
SISSETON         N/A     73  60  63 N6        30.14S
$$

SDZ017-020-022-023-036>040-048>070-301600-
SOUTHEAST SOUTH DAKOTA

CITY           SKY/WX    TMP DP  RH WIND       PRES   REMARKS
SIOUX FALLS    SUNNY     72  59  63 CALM      30.17S
HURON          SUNNY     70  58  65 CALM      30.16S
CHAMBERLAIN    SUNNY     72  55  54 E6        30.17S
MITCHELL       SUNNY     71  58  63 CALM      30.17S
YANKTON        SUNNY     68  57  68 N3        30.17S
$$

ABBREVIATIONS USED IN REMARKS
   TC - TEMPERATURE IN CELSIUS
  WCI - WIND CHILL INDEX
   HX - HEAT INDEX
  VSB - VISIBILITY




USA.gov is the U.S. government's official web portal to all federal, state and local government web resources and services.